Regional Weather Roundup
Issued by NWS Little Rock, AR

Home | Current Version | Previous Version | Text Only | Print | Product List | Glossary Off
Versions: 1 2 3 4 5 6 7 8 9 10 11 12 13 14 15 16 17 18 19 20 21 22 23 24 25 26 27 28 29 30 31 32 33 34 35 36 37 38 39 40 41 42 43 44 45 46 47 48 49 50

654
ASUS44 KLZK 230705
RWRLZK

WEATHER ROUNDUP FOR ARKANSAS
NATIONAL WEATHER SERVICE LITTLE ROCK AR
100 AM CST MON JAN 23 2017

NOTE: "FAIR" INDICATES FEW OR NO CLOUDS BELOW 12,000 FEET WITH NO
SIGNIFICANT WEATHER AND/OR OBSTRUCTIONS TO VISIBILITY.

ARZ001-003-010-029-230800-
NORTHWEST ARKANSAS

CITY           SKY/WX    TMP DP  RH WIND       PRES   REMARKS
FAYETTEVILLE   CLOUDY    36  33  89 N7        29.89S
FORT SMITH     CLOUDY    40  33  76 NW13      29.90R
HARRISON       CLOUDY    36  35  96 NW14G25   29.82S
BENTONVILLE    CLOUDY   N/A N/A N/A N14       29.88F
ROGERS         CLOUDY    36  33  89 N8        29.88F
SILOAM SPGS    CLOUDY    37  32  81 N12       29.90S
HIGHFILL       CLOUDY    37  34  89 N12       29.89S
$$

ARZ004-005-016-230800-
NORTH CENTRAL ARKANSAS

CITY           SKY/WX    TMP DP  RH WIND       PRES   REMARKS
BATESVILLE     PTCLDY    43  34  70 NW14G24   29.73R
FLIPPIN        CLOUDY    39  32  75 NW9       29.79R
MTN HOME       CLOUDY    39  36  89 VRB7      29.79R
$$

ARZ040-041-230800-
WEST CENTRAL ARKANSAS

CITY           SKY/WX    TMP DP  RH WIND       PRES   REMARKS
MENA           CLEAR     45  37  76 NW8       29.84R
MOUNT IDA      CLEAR     46  36  68 NW10G20   29.77R
$$

ARZ009-017-025-026-028-230800-
NORTHEAST ARKANSAS

CITY           SKY/WX    TMP DP  RH WIND       PRES   REMARKS
CORNING        FAIR      46  39  76 NW15G29   29.66R
JONESBORO      MOCLDY    47  39  74 NW20G30   29.63R
NEWPORT        PTCLDY    44  38  79 MISG      29.68R
WALNUT RIDGE   CLEAR     45  36  70 NW24G30   29.66R
BLYTHEVILLE    PTCLDY    48  43  82 N21G30    29.59R
$$

ARZ022-023-033-042-044-230800-
CENTRAL ARKANSAS

CITY           SKY/WX    TMP DP  RH WIND       PRES   REMARKS
LITTLE ROCK    CLOUDY    49  44  83 NW17G29   29.72R
N LITTLE ROCK    N/A     48  44  85 N10G22    29.73R
JACKSONVILLE   CLOUDY    49  44  80 NW17      29.71R
SEARCY         PTCLDY    47  42  83 NW10G18   29.72R
HOT SPRINGS    CLOUDY    49  39  68 NW7G18    29.76R
RUSSELLVILLE   CLOUDY    47  39  74 W9        29.78R
CLINTON        CLOUDY    43  36  75 VRB6G23   29.76R
$$

ARZ036-230800-
EAST ARKANSAS

CITY           SKY/WX    TMP DP  RH WIND       PRES   REMARKS
WEST MEMPHIS   PTCLDY    49  44  83 N13G23    29.60R
$$

ARZ050-053-066-070-073-230800-
SOUTHWEST ARKANSAS

CITY           SKY/WX    TMP DP  RH WIND       PRES   REMARKS
ARKADELPHIA    FAIR      49  39  68 NW7       29.77R
CAMDEN         PTCLDY    50  36  57 NW10      29.76R
TEXARKANA      CLEAR     48  38  68 NW13      29.81F
EL DORADO        N/A    N/A N/A N/A MISG      29.76S
DE QUEEN       CLEAR     46  35  65 NW3       29.82F
$$

ARZ056-057-069-230800-
SOUTHEAST ARKANSAS

CITY           SKY/WX    TMP DP  RH WIND       PRES   REMARKS
PINE BLUFF     MOCLDY    50  44  80 NW16G23   29.70R
STUTTGART      PTCLDY    48  39  71 NW18G26   29.68R
MONTICELLO     CLOUDY    53  45  74 W14G23    29.69R

$$






USA.gov is the U.S. government's official web portal to all federal, state and local government web resources and services.